Flag for Greece Weather past 2 weeks in Nikaia, Greece

52 °F

Passing clouds.

Feels Like: 50 °F
Forecast: 44 / 65 °F
Wind: 6 mph from Northwest

Location: Elefsis Airport

Current Time: Nov 30, 2015 at 6:33:39 AM

Latest Report: Nov 30, 2015 at 5:20 AM

Visibility: N/A

Pressure: 30.15 "Hg

Humidity: 67%

Dew point: 41 °F

Location of NikaiaLocation

Historic Weather in Nikaia — Graph


Nikaia temperature yesterday

Maximum temperature yesterday: 64 °F (at 12:20 PM)
Minimum temperature yesterday: 50 °F (at 3:20 AM)
Average temperature yesterday: 57 °F

Past Weeks' High & Low Weather Summary

High73 °F (Nov 21, 2:50 PM)100% (Nov 21, 2:50 AM)30.18 "Hg (Nov 21, 2:50 AM)
Low48 °F (Nov 19, 3:20 AM)38% (Nov 17, 11:20 AM)29.50 "Hg (Nov 26, 1:50 AM)
Average61 °F70%29.93 "Hg
* Reported Nov 15 4:20 AM — Nov 30 4:50 AM, Nikaia, Weather by CustomWeather, © 2015

Note: Actual official high and low records may vary slightly from our data, if they occured in-between our weather recording intervals... More about our weather records


Nikaia weather history for previous 24 hours

Time TempWeatherWind HumidityBarometerVisibility
4:50 AM
Mon, Nov 30
52 °FPassing clouds.7 mph67%30.15 "HgN/A
3:50 AM52 °FPassing clouds.7 mph72%30.12 "HgN/A
2:50 AM52 °FPassing clouds.7 mph67%30.15 "HgN/A
2:20 AM52 °FPassing clouds.8 mph67%30.12 "HgN/A
1:50 AM52 °FPassing clouds.5 mph67%30.12 "HgN/A
1:20 AM54 °FPassing clouds.6 mph63%30.12 "HgN/A
12:50 AM54 °FPassing clouds.6 mph58%30.12 "HgN/A
12:20 AM54 °FPassing clouds.7 mph63%30.12 "HgN/A
11:50 PM
Sun, Nov 29
52 °FPassing clouds.6 mph67%30.12 "HgN/A
11:20 PM54 °FPassing clouds.6 mph63%30.12 "HgN/A
10:50 PM54 °FPassing clouds.5 mph63%30.12 "HgN/A
10:20 PM54 °FPassing clouds.9 mph63%30.12 "HgN/A
9:50 PM55 °FPassing clouds.9 mph59%30.12 "HgN/A
9:20 PM55 °FPassing clouds.10 mph59%30.09 "HgN/A
8:50 PM54 °FPassing clouds.7 mph67%30.09 "HgN/A
8:20 PM54 °FPassing clouds.5 mph67%30.09 "HgN/A
7:50 PM55 °FPartly cloudy.5 mph67%30.09 "HgN/A
7:20 PM55 °FPassing clouds.No wind67%30.07 "HgN/A
6:50 PM55 °FPassing clouds.No wind67%30.07 "HgN/A
6:20 PM57 °FPartly cloudy.No wind63%30.07 "HgN/A
5:50 PM57 °FPartly cloudy.No wind63%30.07 "HgN/A
5:20 PM57 °FPartly cloudy.6 mph63%30.04 "HgN/A
4:50 PM61 °FBroken clouds.10 mph52%30.04 "HgN/A
4:20 PM63 °FBroken clouds.5 mph52%30.04 "HgN/A
3:50 PM64 °FScattered clouds.7 mph46%30.04 "HgN/A
3:20 PM64 °FScattered clouds.7 mph49%30.04 "HgN/A
2:50 PM63 °FBroken clouds.5 mph52%30.04 "HgN/A
2:20 PM63 °FBroken clouds.7 mph52%30.04 "HgN/A
1:50 PM64 °FBroken clouds.7 mph46%30.04 "HgN/A
1:20 PM64 °FBroken clouds.6 mph46%30.04 "HgN/A
12:50 PM64 °FBroken clouds.9 mph46%30.04 "HgN/A
12:20 PM64 °FScattered clouds.6 mph49%30.04 "HgN/A
11:50 AM63 °FScattered clouds.No wind56%30.04 "HgN/A
11:20 AM63 °FScattered clouds.No wind59%30.07 "HgN/A
10:50 AM63 °FScattered clouds.No wind59%30.07 "HgN/A
10:20 AM61 °FPartly sunny.No wind63%30.07 "HgN/A
9:50 AM61 °FPartly sunny.No wind63%30.07 "HgN/A
8:50 AM55 °FPartly sunny.No wind72%30.07 "HgN/A
8:20 AM54 °FPartly sunny.No wind77%30.04 "HgN/A
6:50 AM52 °FPassing clouds.5 mph77%30.04 "HgN/A
6:20 AM50 °FPassing clouds.No wind82%30.01 "HgN/A
Weather by CustomWeather, © 2015

See weather overviewHow to use our weather pages